Weather History for Valparaiso, IN

Change the Weather History Date:

Monday, October 21, 2013

  Actual Average Record
Temperature  
Mean Temperature 42 °F 51 °F  
Max Temperature 53 °F 61 °F 79 °F (2007)
Min Temperature 30 °F 41 °F 28 °F (2002)
Degree Days  
Heating Degree Days 23 14  
Month to date heating degree days 208 242  
Since 1 July heating degree days 316 372  
Cooling Degree Days 0 0  
Month to date cooling degree days 25 11  
Year to date cooling degree days 810 713  
Moisture  
Dew Point 37 °F    
Average Humidity 74    
Maximum Humidity 96    
Minimum Humidity 51    
Precipitation  
Precipitation 0.02 in 0.11 in 0.03 in (1998)
Month to date precipitation 1.59 2.22  
Year to date precipitation 29.84 30.97  
Sea Level Pressure  
Sea Level Pressure 29.92 in    
Wind  
Wind Speed 10 mph (WSW)    
Max Wind Speed 18 mph    
Max Gust Speed 23 mph    
Visibility 10 miles    
Events Rain    
T = Trace of Precipitation, MM = Missing Value Source: NWS Daily Summary

Daily Weather History Graph

Daily Weather History Graph

Search for Another Location

Airport:

Trip Planner

Search our weather history database for the weather conditions in past years. The results will help you decide how hot, cold, wet, or windy it might be!

Date:

Astronomy

Oct. 21, 2013 Rise Set
Actual Time 7:07 AM CDT 5:57 PM CDT
Civil Twilight 6:38 AM CDT 6:25 PM CDT
Nautical Twilight 6:06 AM CDT 6:57 PM CDT
Astronomical Twilight 5:34 AM CDT 7:29 PM CDT
Moon 7:48 PM CDT (10/21) 9:43 AM CDT (10/21)
Length of Visible Light 11h 46m
Length of Day
10h 50m
Waning Gibbous, 92% of the Moon is Illuminated
Oct 21
Waning Gibbous
Oct 26
Last Quarter
Nov 3
New
Nov 9
First Quarter
Nov 17
Full

Hourly Weather History & Observations

Time (CDT) Temp. Windchill Dew Point Humidity Pressure Visibility Wind Dir Wind Speed Gust Speed Precip Events Conditions
12:53 AM 52.0 °F - 42.1 °F 69% 29.84 in 10.0 mi SSW 4.6 mph - N/A   Partly Cloudy
1:53 AM 52.0 °F - 43.0 °F 71% 29.85 in 10.0 mi SW 8.1 mph - N/A   Mostly Cloudy
2:53 AM 53.1 °F - 44.1 °F 71% 29.84 in 10.0 mi SW 10.4 mph - 0.00 in Rain Light Rain
3:53 AM 52.0 °F - 44.1 °F 74% 29.84 in 10.0 mi SW 10.4 mph - 0.00 in   Overcast
4:53 AM 52.0 °F - 44.1 °F 74% 29.85 in 10.0 mi WSW 9.2 mph - N/A   Overcast
5:53 AM 50.0 °F - 46.0 °F 86% 29.86 in 10.0 mi West 6.9 mph - 0.00 in Rain Light Rain
6:53 AM 48.0 °F - 46.9 °F 96% 29.88 in 10.0 mi WSW 6.9 mph - 0.02 in Rain Light Rain
7:53 AM 48.0 °F - 46.9 °F 96% 29.89 in 10.0 mi SW 6.9 mph - 0.00 in   Mostly Cloudy
8:19 AM 48.2 °F - 46.4 °F 93% 29.90 in 10.0 mi West 8.1 mph - N/A   Overcast
8:53 AM 46.9 °F - 43.0 °F 86% 29.91 in 10.0 mi West 12.7 mph - N/A   Scattered Clouds
9:22 AM 46.4 °F 40.4 °F 41.0 °F 81% 29.92 in 10.0 mi West 13.8 mph - N/A   Mostly Cloudy
9:53 AM 46.0 °F 39.3 °F 39.9 °F 79% 29.93 in 10.0 mi West 16.1 mph - N/A   Overcast
10:53 AM 46.9 °F - 39.9 °F 77% 29.92 in 10.0 mi West 9.2 mph - N/A   Overcast
11:53 AM 46.9 °F - 39.0 °F 74% 29.93 in 10.0 mi West 12.7 mph - N/A   Overcast
12:53 PM 45.0 °F 38.5 °F 37.0 °F 74% 29.92 in 10.0 mi West 13.8 mph - N/A   Mostly Cloudy
1:17 PM 44.6 °F 38.1 °F 35.6 °F 71% 29.92 in 10.0 mi West 13.8 mph - N/A   Scattered Clouds
1:53 PM 46.0 °F 40.2 °F 34.0 °F 63% 29.92 in 10.0 mi WSW 12.7 mph - N/A   Mostly Cloudy
2:53 PM 46.9 °F - 33.1 °F 59% 29.91 in 10.0 mi WSW 17.3 mph - N/A   Scattered Clouds
3:53 PM 46.9 °F - 32.0 °F 56% 29.91 in 10.0 mi WSW 15.0 mph 20.7 mph N/A   Scattered Clouds
4:53 PM 46.0 °F 39.6 °F 28.9 °F 51% 29.92 in 10.0 mi WSW 15.0 mph 23.0 mph N/A   Clear
5:53 PM 43.0 °F 36.8 °F 28.0 °F 56% 29.94 in 10.0 mi West 11.5 mph - N/A   Clear
6:53 PM 39.9 °F 32.9 °F 27.0 °F 60% 29.96 in 10.0 mi West 11.5 mph - N/A   Clear
7:53 PM 36.0 °F 30.3 °F 26.1 °F 67% 29.98 in 10.0 mi West 6.9 mph - N/A   Clear
8:53 PM 34.0 °F 28.0 °F 26.1 °F 73% 29.99 in 10.0 mi WSW 6.9 mph - N/A   Clear
9:53 PM 33.1 °F 27.7 °F 26.1 °F 75% 30.00 in 10.0 mi West 5.8 mph - N/A   Clear
10:53 PM 30.9 °F 26.2 °F 26.1 °F 82% 30.00 in 10.0 mi West 4.6 mph - N/A   Clear
11:53 PM 30.0 °F 24.1 °F 25.0 °F 82% 30.00 in 10.0 mi WSW 5.8 mph - N/A   Clear